Regional Weather Roundup
Issued by NWS Charleston, SC

Current Version | Previous Version | Text Only | Print | Product List | Glossary On
Versions: 1 2 3 4 5 6 7 8 9 10 11 12 13 14 15 16 17 18 19 20 21 22 23 24 25 26 27 28 29 30 31 32 33 34 35 36 37 38 39 40 41 42 43 44 45 46 47 48 49 50
000 ASUS42 KCHS 221625 RWRCHS REGIONAL WEATHER ROUNDUP NATIONAL WEATHER SERVICE CHARLESTON SC 1200 PM EDT FRI AUG 22 2014 NOTE: "FAIR" INDICATES FEW OR NO CLOUDS BELOW 12,000 FEET WITH NO SIGNIFICANT WEATHER AND/OR OBSTRUCTIONS TO VISIBILITY. NOT ALL STATIONS ARE QUALITY CONTROLLED BY THE NATIONAL WEATHER SERVICE. USE DATA WITH CAUTION...ESPECIALLY DEWPOINT OBSERVATIONS. SCZ027-030-031-034>040-042>050-221700- ...SOUTH CAROLINA... CITY SKY/WX TMP DP RH WIND PRES REMARKS N CHARLESTON MOSUNNY 95 71 45 W7 30.03F HX 102 WATERFRONT PRK N/A 91 N/A N/A W3G10 N/A FORT JOHNSON NOT AVBL MOUNT PLEASANT FAIR 95 73 49 CALM 30.03S HX 105 JOHNS ISLAND SUNNY 97 73 46 CALM 30.03F HX 107 PINOPOLIS N/A 93 73 52 SW3 29.96F HX 102 MONCKS CORNER NOT AVBL SUMMERVILLE FAIR 95 73 49 SW5 30.04F HX 105 BEAUFORT MCAS MOSUNNY 95 72 47 N7 30.04F HX 103 BEAUFORT ARPT FAIR 93 73 52 NW7 30.04S HX 102 HILTON HEAD IS SUNNY 93 75 55 N10 30.06S HX 104 GEORGETOWN NOT AVBL WALTERBORO SUNNY 95 64 36 W8 30.04F HX 97 ORANGEBURG SUNNY 93 68 43 NW8 30.04F HX 97 BARNWELL FAIR 95 70 43 N8 30.05F HX 101 AIKEN FAIR 91 73 55 NW9G16 30.09F HX 100 MANNING FAIR 95 73 49 W3 30.02F HX 105 KINGSTREE NOT AVBL COLUMBIA PTSUNNY 94 69 44 NW8 30.03F HX 99 SUMTER MOSUNNY 93 74 53 NW9 30.02F HX 103 FLORENCE MOSUNNY 93 71 48 VRB3 30.02F HX 100 MYRTLE BEACH SUNNY 93 72 49 W8 30.03S HX 100 N MYRTLE BEACH MOSUNNY 90 73 57 VRB3 30.02 HX 98 $$ GAZ063-065-086>088-099>101-113>116-118-119-134-136>141-150-221700- ...GEORGIA... CITY SKY/WX TMP DP RH WIND PRES REMARKS SAVANNAH ARPT MOSUNNY 95 71 45 N6 30.06S HX 102 HUNTER AAF SUNNY 94 74 50 NW7 30.04S HX 104 FORT STEWART SUNNY 95 72 47 N7 30.05F HX 104 STATESBORO NOT AVBL SYLVANIA SUNNY 95 75 52 NW6 30.06F HX 106 CLAXTON FAIR 95 77 55 W8 30.07S HX 109 THOMSON SUNNY 94 77 56 NW10G17 30.12S HX 109 AUGUSTA-BUSH SUNNY 94 70 45 NW13 30.05F HX 100 AUGUSTA-DANIEL SUNNY 93 71 48 W6 30.07F HX 100 SWAINSBORO FAIR 97 72 44 NW10G16 30.08F HX 105 VIDALIA N/A 93 73 52 N7 30.09S HX 102 ALMA SUNNY 92 73 53 NW7 30.08F HX 100 WAYCROSS SUNNY 96 78 55 NW6 30.09S HX 111 JESUP N/A 95 73 49 N3 30.07S HX 105 BRUNSWICK SUNNY 95 72 46 NW6 30.07S HX 103 SAINT SIMONS SUNNY 93 73 52 NW7 30.06S HX 102 $$ SCZ027-028-034-036>038-045-046-048>050-GAZ119-141-221700- ...LAKE AND SUPPLEMENTAL COASTAL OBSERVATIONS... STATION/POSITION TIME TEMP WIND PRES WAVE SWELL AIR SEA DIR/SP/G HT/PER HT/PER/DIR (UTC) (F) (DEG/KT/KT) (MB) (FT/S) (FT/S/D) UPR LAKE MARION NOT AVBL WINYAH BAY 1600 91 270/ 4 1017.0S LAKE MURRAY 1600 89 250/ 3/ 7 1016.6S ACE BASIN NERRS 1600 93 320/ 2 1017.0F FORT PULASKI 1600 90 280/ 9/ 10 1017.7F SAPELO ISLAND 1500 92 340/ 5 1019.0S $$ ANZ835-935-AMZ111-154-330-350-352-354-374-450-454-472-221700- ...C-MAN AND BUOY OBSERVATIONS... STATION/POSITION TIME TEMP WIND PRES WAVE SWELL AIR SEA DIR/SP/G HT/PER HT/PER/DIR (UTC) (F) (DEG/KT/KT) (MB) (FT/S) (FT/S/D) FOLLY BEACH CMAN 1600 88 170/ 5/ 6 1017.4F BUOY 41004 1600 85 85 260/ 6/ 6 1016.9F 2/ 4 2/ 9 BUOY 41008 1600 85 86 310/ 4/ 4 1017.9S 1/ 9 5E ST. MARYS GA 1600 83 N/A 1/10 FRYING PAN BUOY NOT AVBL BUOY 41025 1600 79 280/ 6/ 8 1015.5S 2/ 8 2/ 30/ 8 CAPE LOOKOUT NC 1600 85 260/ 10/ 12 1015.9F BUOY 41002 1546 82 82 250/ 14/ 16 1018.1F 2/ 9 2/110/ 9 BUOY 41010 1600 83 86 280/ 6/ 6 1019.2S 2/ 3 2/140/ 6 BUOY 41012 NOT AVBL ST AUGUSTINE FL 1600 84 90/ 4/ 5 1019.1F CAPERS NEARSHORE 1500 87 220/ 4/ 6 N/A FRIPP NEARSHORE NOT AVBL $$

USA.gov is the U.S. government's official web portal to all federal, state and local government web resources and services.